contact:dominique.lefevre@mio.osupytheas.fr, maurice.libes@osupytheas.fr, didier.mallarino@osupytheas.fr
Project:EMSO http://www.emso-fr.org/EMSO-France
Depth: 2436.0 m
Title:EMSO Ligure Ouest : Data MII capteur MICROCAT
DateTime_Computer,Latitude,Longitude,Temperature,Conductivity,Pressure,DateTime_Instrument
DateTime_Computer,Latitude,Longitude,degC,S m-1,dbar,DateTime_Instrument
2019-05-23T00:00:41Z,42.805,6.029,13.2950,4.59960,2469.69,2019-5-23T02:00:55Z
2019-05-23T00:03:43Z,42.805,6.029,13.2949,4.59957,2469.704,2019-5-23T02:03:58Z
2019-05-23T00:06:46Z,42.805,6.029,13.2951,4.59960,2469.68,2019-5-23T02:07:01Z
2019-05-23T00:09:49Z,42.805,6.029,13.2950,4.59968,2469.667,2019-5-23T02:10:04Z
2019-05-23T00:12:52Z,42.805,6.029,13.2951,4.59958,2469.68,2019-5-23T02:13:07Z
2019-05-23T00:15:55Z,42.805,6.029,13.2949,4.59963,2469.657,2019-5-23T02:16:10Z
2019-05-23T00:18:58Z,42.805,6.029,13.2953,4.59961,2469.643,2019-5-23T02:19:13Z
2019-05-23T00:22:01Z,42.805,6.029,13.2952,4.59973,2469.704,2019-5-23T02:22:15Z
2019-05-23T00:25:04Z,42.805,6.029,13.2948,4.59962,2469.68,2019-5-23T02:25:18Z
2019-05-23T00:28:07Z,42.805,6.029,13.2950,4.59961,2469.634,2019-5-23T02:28:21Z
2019-05-23T00:31:10Z,42.805,6.029,13.2951,4.59964,2469.667,2019-5-23T02:31:24Z
2019-05-23T00:34:13Z,42.805,6.029,13.2953,4.59967,2469.657,2019-5-23T02:34:27Z
2019-05-23T00:37:16Z,42.805,6.029,13.2953,4.59963,2469.657,2019-5-23T02:37:30Z
2019-05-23T00:40:19Z,42.805,6.029,13.2952,4.59961,2469.69,2019-5-23T02:40:33Z
2019-05-23T00:43:22Z,42.805,6.029,13.2953,4.59966,2469.657,2019-5-23T02:43:36Z
2019-05-23T00:46:25Z,42.805,6.029,13.2950,4.59974,2469.657,2019-5-23T02:46:39Z
2019-05-23T00:49:28Z,42.805,6.029,13.2953,4.59967,2469.68,2019-5-23T02:49:42Z
2019-05-23T00:52:31Z,42.805,6.029,13.2952,4.59966,2469.68,2019-5-23T02:52:45Z
2019-05-23T00:55:34Z,42.805,6.029,13.2948,4.59973,2469.657,2019-5-23T02:55:48Z
2019-05-23T00:58:37Z,42.805,6.029,13.2951,4.59966,2469.643,2019-5-23T02:58:51Z
2019-05-23T01:01:39Z,42.805,6.029,13.2952,4.59964,2469.62,2019-5-23T03:01:54Z
2019-05-23T01:04:42Z,42.805,6.029,13.2950,4.59962,2469.634,2019-5-23T03:04:57Z
2019-05-23T01:07:45Z,42.805,6.029,13.2952,4.59963,2469.643,2019-5-23T03:08:00Z
2019-05-23T01:10:48Z,42.805,6.029,13.2952,4.59964,2469.657,2019-5-23T03:11:03Z
2019-05-23T01:13:51Z,42.805,6.029,13.2955,4.59961,2469.657,2019-5-23T03:14:06Z
2019-05-23T01:16:54Z,42.805,6.029,13.2953,4.59964,2469.657,2019-5-23T03:17:09Z
2019-05-23T01:19:57Z,42.805,6.029,13.2947,4.59960,2469.643,2019-5-23T03:20:11Z
2019-05-23T01:23:00Z,42.805,6.029,13.2953,4.59959,2469.643,2019-5-23T03:23:14Z
2019-05-23T01:26:03Z,42.805,6.029,13.2952,4.59964,2469.634,2019-5-23T03:26:17Z
2019-05-23T01:29:06Z,42.805,6.029,13.2951,4.59961,2469.657,2019-5-23T03:29:20Z
2019-05-23T01:32:09Z,42.805,6.029,13.2951,4.59967,2469.634,2019-5-23T03:32:23Z
2019-05-23T01:35:12Z,42.805,6.029,13.2952,4.59961,2469.634,2019-5-23T03:35:26Z
2019-05-23T01:38:15Z,42.805,6.029,13.2952,4.59958,2469.657,2019-5-23T03:38:29Z
2019-05-23T01:41:18Z,42.805,6.029,13.2952,4.59964,2469.634,2019-5-23T03:41:32Z
2019-05-23T01:44:21Z,42.805,6.029,13.2949,4.59960,2469.643,2019-5-23T03:44:35Z
2019-05-23T01:47:24Z,42.805,6.029,13.2953,4.59964,2469.62,2019-5-23T03:47:38Z
2019-05-23T01:50:27Z,42.805,6.029,13.2948,4.59966,2469.634,2019-5-23T03:50:41Z
2019-05-23T01:53:30Z,42.805,6.029,13.2949,4.59971,2469.61,2019-5-23T03:53:44Z
2019-05-23T01:56:33Z,42.805,6.029,13.2951,4.59968,2469.61,2019-5-23T03:56:47Z
2019-05-23T01:59:35Z,42.805,6.029,13.2952,4.59968,2469.61,2019-5-23T03:59:50Z
2019-05-23T02:02:38Z,42.805,6.029,13.2954,4.59972,2469.62,2019-5-23T04:02:53Z
2019-05-23T02:05:41Z,42.805,6.029,13.2954,4.59964,2469.657,2019-5-23T04:05:56Z
2019-05-23T02:08:44Z,42.805,6.029,13.2955,4.59968,2469.643,2019-5-23T04:08:59Z
2019-05-23T02:11:47Z,42.805,6.029,13.2951,4.59968,2469.61,2019-5-23T04:12:02Z
2019-05-23T02:14:50Z,42.805,6.029,13.2954,4.59962,2469.634,2019-5-23T04:15:05Z
2019-05-23T02:17:53Z,42.805,6.029,13.2952,4.59960,2469.61,2019-5-23T04:18:08Z
2019-05-23T02:20:56Z,42.805,6.029,13.2956,4.59961,2469.634,2019-5-23T04:21:10Z
2019-05-23T02:23:59Z,42.805,6.029,13.2947,4.59962,2469.643,2019-5-23T04:24:13Z
2019-05-23T02:27:02Z,42.805,6.029,13.2954,4.59959,2469.61,2019-5-23T04:27:16Z
2019-05-23T02:30:05Z,42.805,6.029,13.2950,4.59958,2469.61,2019-5-23T04:30:19Z
2019-05-23T02:33:08Z,42.805,6.029,13.2954,4.59964,2469.634,2019-5-23T04:33:22Z
2019-05-23T02:36:11Z,42.805,6.029,13.2951,4.59956,2469.597,2019-5-23T04:36:25Z
2019-05-23T02:39:14Z,42.805,6.029,13.2954,4.59957,2469.62,2019-5-23T04:39:28Z
2019-05-23T02:42:17Z,42.805,6.029,13.2951,4.59959,2469.597,2019-5-23T04:42:31Z
2019-05-23T02:45:20Z,42.805,6.029,13.2949,4.59958,2469.634,2019-5-23T04:45:34Z
2019-05-23T02:48:23Z,42.805,6.029,13.2952,4.59960,2469.587,2019-5-23T04:48:37Z
2019-05-23T02:51:26Z,42.805,6.029,13.2952,4.59958,2469.587,2019-5-23T04:51:40Z
2019-05-23T02:54:29Z,42.805,6.029,13.2951,4.59957,2469.597,2019-5-23T04:54:43Z
2019-05-23T02:57:32Z,42.805,6.029,13.2953,4.59956,2469.573,2019-5-23T04:57:46Z
2019-05-23T03:00:34Z,42.805,6.029,13.2956,4.59957,2469.573,2019-5-23T05:00:49Z
2019-05-23T03:03:37Z,42.805,6.029,13.2955,4.59955,2469.597,2019-5-23T05:03:52Z
2019-05-23T03:06:40Z,42.805,6.029,13.2954,4.59960,2469.634,2019-5-23T05:06:55Z
2019-05-23T03:09:43Z,42.805,6.029,13.2946,4.59957,2469.573,2019-5-23T05:09:58Z
2019-05-23T03:12:46Z,42.805,6.029,13.2951,4.59956,2469.597,2019-5-23T05:13:01Z
2019-05-23T03:15:49Z,42.805,6.029,13.2950,4.59957,2469.62,2019-5-23T05:16:04Z
2019-05-23T03:18:52Z,42.805,6.029,13.2952,4.59958,2469.597,2019-5-23T05:19:06Z
2019-05-23T03:21:55Z,42.805,6.029,13.2952,4.59956,2469.573,2019-5-23T05:22:09Z
2019-05-23T03:24:58Z,42.805,6.029,13.2952,4.59962,2469.563,2019-5-23T05:25:12Z
2019-05-23T03:28:01Z,42.805,6.029,13.2954,4.59961,2469.587,2019-5-23T05:28:15Z
2019-05-23T03:31:04Z,42.805,6.029,13.2955,4.59958,2469.587,2019-5-23T05:31:18Z
2019-05-23T03:34:07Z,42.805,6.029,13.2951,4.59961,2469.587,2019-5-23T05:34:21Z
2019-05-23T03:37:10Z,42.805,6.029,13.2952,4.59956,2469.563,2019-5-23T05:37:24Z
2019-05-23T03:40:13Z,42.805,6.029,13.2953,4.59957,2469.573,2019-5-23T05:40:27Z
2019-05-23T03:43:16Z,42.805,6.029,13.2952,4.59957,2469.597,2019-5-23T05:43:30Z
2019-05-23T03:46:19Z,42.805,6.029,13.2953,4.59957,2469.55,2019-5-23T05:46:33Z
2019-05-23T03:49:22Z,42.805,6.029,13.2952,4.59957,2469.573,2019-5-23T05:49:36Z
2019-05-23T03:52:25Z,42.805,6.029,13.2948,4.59957,2469.563,2019-5-23T05:52:39Z
2019-05-23T03:55:28Z,42.805,6.029,13.2953,4.59964,2469.573,2019-5-23T05:55:42Z
2019-05-23T03:58:30Z,42.805,6.029,13.2951,4.59957,2469.573,2019-5-23T05:58:45Z
2019-05-23T04:01:33Z,42.805,6.029,13.2953,4.59958,2469.563,2019-5-23T06:01:48Z
2019-05-23T04:04:36Z,42.805,6.029,13.2952,4.59956,2469.55,2019-5-23T06:04:51Z
2019-05-23T04:07:39Z,42.805,6.029,13.2953,4.59958,2469.55,2019-5-23T06:07:54Z
2019-05-23T04:10:42Z,42.805,6.029,13.2954,4.59961,2469.55,2019-5-23T06:10:57Z
2019-05-23T04:13:45Z,42.805,6.029,13.2954,4.59956,2469.563,2019-5-23T06:14:00Z
2019-05-23T04:16:48Z,42.805,6.029,13.2953,4.59956,2469.573,2019-5-23T06:17:03Z
2019-05-23T04:19:51Z,42.805,6.029,13.2952,4.59960,2469.54,2019-5-23T06:20:05Z
2019-05-23T04:22:54Z,42.805,6.029,13.2953,4.59964,2469.55,2019-5-23T06:23:08Z
2019-05-23T04:25:57Z,42.805,6.029,13.2953,4.59963,2469.573,2019-5-23T06:26:11Z
2019-05-23T04:29:00Z,42.805,6.029,13.2950,4.59957,2469.563,2019-5-23T06:29:14Z
2019-05-23T04:32:03Z,42.805,6.029,13.2952,4.59960,2469.54,2019-5-23T06:32:17Z
2019-05-23T04:35:06Z,42.805,6.029,13.2949,4.59958,2469.55,2019-5-23T06:35:20Z
2019-05-23T04:38:09Z,42.805,6.029,13.2951,4.59960,2469.526,2019-5-23T06:38:23Z
2019-05-23T04:41:12Z,42.805,6.029,13.2953,4.59963,2469.563,2019-5-23T06:41:26Z
2019-05-23T04:44:15Z,42.805,6.029,13.2953,4.59968,2469.563,2019-5-23T06:44:29Z
2019-05-23T04:47:18Z,42.805,6.029,13.2957,4.59957,2469.563,2019-5-23T06:47:32Z
2019-05-23T04:50:21Z,42.805,6.029,13.2953,4.59958,2469.503,2019-5-23T06:50:35Z
2019-05-23T04:53:24Z,42.805,6.029,13.2951,4.59957,2469.55,2019-5-23T06:53:38Z
2019-05-23T04:56:26Z,42.805,6.029,13.2948,4.59957,2469.54,2019-5-23T06:56:41Z
2019-05-23T04:59:29Z,42.805,6.029,13.2951,4.59957,2469.55,2019-5-23T06:59:44Z
2019-05-23T05:02:32Z,42.805,6.029,13.2950,4.59954,2469.563,2019-5-23T07:02:47Z
2019-05-23T05:05:35Z,42.805,6.029,13.2948,4.59962,2469.573,2019-5-23T07:05:50Z
2019-05-23T05:08:38Z,42.805,6.029,13.2948,4.59961,2469.563,2019-5-23T07:08:53Z
2019-05-23T05:11:41Z,42.805,6.029,13.2951,4.59971,2469.517,2019-5-23T07:11:56Z
2019-05-23T05:14:44Z,42.805,6.029,13.2952,4.59968,2469.54,2019-5-23T07:14:59Z
2019-05-23T05:17:47Z,42.805,6.029,13.2952,4.59961,2469.526,2019-5-23T07:18:02Z
2019-05-23T05:20:50Z,42.805,6.029,13.2950,4.59966,2469.587,2019-5-23T07:21:04Z
2019-05-23T05:23:53Z,42.805,6.029,13.2952,4.59969,2469.563,2019-5-23T07:24:07Z
2019-05-23T05:26:56Z,42.805,6.029,13.2952,4.59956,2469.526,2019-5-23T07:27:10Z
2019-05-23T05:29:59Z,42.805,6.029,13.2951,4.59958,2469.526,2019-5-23T07:30:13Z
2019-05-23T05:33:02Z,42.805,6.029,13.2952,4.59973,2469.563,2019-5-23T07:33:16Z
2019-05-23T05:36:05Z,42.805,6.029,13.2953,4.59968,2469.526,2019-5-23T07:36:19Z
2019-05-23T05:39:08Z,42.805,6.029,13.2950,4.59966,2469.563,2019-5-23T07:39:22Z
2019-05-23T05:42:11Z,42.805,6.029,13.2950,4.59972,2469.563,2019-5-23T07:42:25Z
2019-05-23T05:45:14Z,42.805,6.029,13.2951,4.59961,2469.563,2019-5-23T07:45:28Z
2019-05-23T05:48:17Z,42.805,6.029,13.2951,4.59966,2469.563,2019-5-23T07:48:31Z
2019-05-23T05:51:20Z,42.805,6.029,13.2952,4.59958,2469.563,2019-5-23T07:51:34Z
2019-05-23T05:54:22Z,42.805,6.029,13.2956,4.59958,2469.587,2019-5-23T07:54:37Z
2019-05-23T05:57:25Z,42.805,6.029,13.2953,4.59964,2469.563,2019-5-23T07:57:40Z
2019-05-23T06:00:28Z,42.805,6.029,13.2953,4.59960,2469.563,2019-5-23T08:00:43Z
2019-05-23T06:03:31Z,42.805,6.029,13.2950,4.59958,2469.55,2019-5-23T08:03:46Z
2019-05-23T06:06:34Z,42.805,6.029,13.2952,4.59961,2469.577,2019-5-23T08:06:49Z
2019-05-23T06:09:37Z,42.805,6.029,13.2951,4.59968,2469.563,2019-5-23T08:09:52Z
2019-05-23T06:12:40Z,42.805,6.029,13.2951,4.59959,2469.563,2019-5-23T08:12:55Z
2019-05-23T06:15:43Z,42.805,6.029,13.2950,4.59966,2469.526,2019-5-23T08:15:57Z
2019-05-23T06:18:46Z,42.805,6.029,13.2954,4.59959,2469.563,2019-5-23T08:19:00Z
2019-05-23T06:21:49Z,42.805,6.029,13.2952,4.59962,2469.563,2019-5-23T08:22:03Z
2019-05-23T06:24:52Z,42.805,6.029,13.2954,4.59956,2469.54,2019-5-23T08:25:06Z
2019-05-23T06:27:55Z,42.805,6.029,13.2953,4.59957,2469.563,2019-5-23T08:28:09Z
2019-05-23T06:30:58Z,42.805,6.029,13.2952,4.59958,2469.563,2019-5-23T08:31:12Z
2019-05-23T06:34:01Z,42.805,6.029,13.2953,4.59958,2469.55,2019-5-23T08:34:15Z
2019-05-23T06:37:04Z,42.805,6.029,13.2952,4.59958,2469.587,2019-5-23T08:37:18Z
2019-05-23T06:40:07Z,42.805,6.029,13.2952,4.59960,2469.587,2019-5-23T08:40:21Z
2019-05-23T06:43:10Z,42.805,6.029,13.2952,4.59955,2469.563,2019-5-23T08:43:24Z
2019-05-23T06:46:13Z,42.805,6.029,13.2951,4.59956,2469.573,2019-5-23T08:46:27Z
2019-05-23T06:49:16Z,42.805,6.029,13.2954,4.59956,2469.55,2019-5-23T08:49:30Z
2019-05-23T06:52:19Z,42.805,6.029,13.2950,4.59958,2469.587,2019-5-23T08:52:33Z
2019-05-23T06:55:21Z,42.805,6.029,13.2953,4.59954,2469.573,2019-5-23T08:55:36Z
2019-05-23T06:58:24Z,42.805,6.029,13.2948,4.59953,2469.573,2019-5-23T08:58:39Z
2019-05-23T07:01:27Z,42.805,6.029,13.2953,4.59956,2469.634,2019-5-23T09:01:42Z
2019-05-23T07:04:30Z,42.805,6.029,13.2951,4.59956,2469.563,2019-5-23T09:04:45Z
2019-05-23T07:07:33Z,42.805,6.029,13.2953,4.59956,2469.573,2019-5-23T09:07:48Z
2019-05-23T07:10:36Z,42.805,6.029,13.2950,4.59956,2469.573,2019-5-23T09:10:51Z
2019-05-23T07:13:39Z,42.805,6.029,13.2951,4.59955,2469.597,2019-5-23T09:13:54Z
2019-05-23T07:16:42Z,42.805,6.029,13.2953,4.59955,2469.573,2019-5-23T09:16:56Z
2019-05-23T07:19:45Z,42.805,6.029,13.2953,4.59956,2469.61,2019-5-23T09:19:59Z
2019-05-23T07:22:48Z,42.805,6.029,13.2949,4.59956,2469.573,2019-5-23T09:23:02Z
2019-05-23T07:25:51Z,42.805,6.029,13.2953,4.59956,2469.573,2019-5-23T09:26:05Z
2019-05-23T07:28:54Z,42.805,6.029,13.2953,4.59953,2469.61,2019-5-23T09:29:08Z
2019-05-23T07:31:57Z,42.805,6.029,13.2952,4.59955,2469.61,2019-5-23T09:32:11Z
2019-05-23T07:35:00Z,42.805,6.029,13.2952,4.59954,2469.597,2019-5-23T09:35:14Z
2019-05-23T07:38:03Z,42.805,6.029,13.2950,4.59955,2469.597,2019-5-23T09:38:17Z
2019-05-23T07:41:06Z,42.805,6.029,13.2949,4.59956,2469.597,2019-5-23T09:41:20Z
2019-05-23T07:44:09Z,42.805,6.029,13.2953,4.59953,2469.587,2019-5-23T09:44:23Z
2019-05-23T07:47:12Z,42.805,6.029,13.2949,4.59958,2469.587,2019-5-23T09:47:26Z
2019-05-23T07:50:15Z,42.805,6.029,13.2955,4.59956,2469.597,2019-5-23T09:50:29Z
2019-05-23T07:53:17Z,42.805,6.029,13.2951,4.59955,2469.597,2019-5-23T09:53:32Z
2019-05-23T07:56:20Z,42.805,6.029,13.2953,4.59953,2469.587,2019-5-23T09:56:35Z
2019-05-23T07:59:23Z,42.805,6.029,13.2953,4.59955,2469.61,2019-5-23T09:59:38Z
2019-05-23T08:02:26Z,42.805,6.029,13.2952,4.59954,2469.597,2019-5-23T10:02:41Z
2019-05-23T08:05:29Z,42.805,6.029,13.2952,4.59956,2469.573,2019-5-23T10:05:44Z
2019-05-23T08:08:32Z,42.805,6.029,13.2948,4.59956,2469.587,2019-5-23T10:08:47Z
2019-05-23T08:11:35Z,42.805,6.029,13.2953,4.59956,2469.634,2019-5-23T10:11:50Z
2019-05-23T08:14:38Z,42.805,6.029,13.2950,4.59954,2469.597,2019-5-23T10:14:53Z
2019-05-23T08:17:41Z,42.805,6.029,13.2951,4.59954,2469.597,2019-5-23T10:17:55Z
2019-05-23T08:20:44Z,42.805,6.029,13.2948,4.59956,2469.61,2019-5-23T10:20:58Z
2019-05-23T08:23:47Z,42.805,6.029,13.2948,4.59956,2469.573,2019-5-23T10:24:01Z
2019-05-23T08:26:50Z,42.805,6.029,13.2950,4.59954,2469.61,2019-5-23T10:27:04Z
2019-05-23T08:29:53Z,42.805,6.029,13.2951,4.59955,2469.597,2019-5-23T10:30:07Z
2019-05-23T08:32:56Z,42.805,6.029,13.2951,4.59956,2469.61,2019-5-23T10:33:10Z
2019-05-23T08:35:59Z,42.805,6.029,13.2953,4.59962,2469.61,2019-5-23T10:36:13Z
2019-05-23T08:39:02Z,42.805,6.029,13.2949,4.59956,2469.61,2019-5-23T10:39:16Z
2019-05-23T08:42:05Z,42.805,6.029,13.2953,4.59954,2469.597,2019-5-23T10:42:19Z
2019-05-23T08:45:08Z,42.805,6.029,13.2951,4.59956,2469.61,2019-5-23T10:45:22Z
2019-05-23T08:48:11Z,42.805,6.029,13.2950,4.59956,2469.634,2019-5-23T10:48:25Z
2019-05-23T08:51:14Z,42.805,6.029,13.2950,4.59956,2469.62,2019-5-23T10:51:28Z
2019-05-23T08:54:17Z,42.805,6.029,13.2950,4.59961,2469.62,2019-5-23T10:54:31Z
2019-05-23T08:57:19Z,42.805,6.029,13.2952,4.59960,2469.657,2019-5-23T10:57:34Z
2019-05-23T09:00:22Z,42.805,6.029,13.2950,4.59956,2469.587,2019-5-23T11:00:37Z
2019-05-23T09:03:25Z,42.805,6.029,13.2952,4.59958,2469.597,2019-5-23T11:03:40Z
2019-05-23T09:06:28Z,42.805,6.029,13.2949,4.59958,2469.634,2019-5-23T11:06:43Z
2019-05-23T09:09:31Z,42.805,6.029,13.2953,4.59957,2469.573,2019-5-23T11:09:46Z
2019-05-23T09:12:34Z,42.805,6.029,13.2950,4.59961,2469.634,2019-5-23T11:12:49Z
2019-05-23T09:15:37Z,42.805,6.029,13.2948,4.59958,2469.634,2019-5-23T11:15:52Z
2019-05-23T09:18:40Z,42.805,6.029,13.2952,4.59955,2469.657,2019-5-23T11:18:55Z
2019-05-23T09:21:43Z,42.805,6.029,13.2948,4.59956,2469.597,2019-5-23T11:21:57Z
2019-05-23T09:24:46Z,42.805,6.029,13.2950,4.59956,2469.62,2019-5-23T11:25:00Z
2019-05-23T09:27:49Z,42.805,6.029,13.2946,4.59956,2469.587,2019-5-23T11:28:03Z
2019-05-23T09:30:52Z,42.805,6.029,13.2953,4.59956,2469.62,2019-5-23T11:31:06Z
2019-05-23T09:33:55Z,42.805,6.029,13.2951,4.59961,2469.61,2019-5-23T11:34:09Z
2019-05-23T09:36:58Z,42.805,6.029,13.2951,4.59958,2469.643,2019-5-23T11:37:12Z
2019-05-23T09:40:01Z,42.805,6.029,13.2954,4.59959,2469.62,2019-5-23T11:40:15Z
2019-05-23T09:43:04Z,42.805,6.029,13.2952,4.59958,2469.597,2019-5-23T11:43:18Z
2019-05-23T09:46:07Z,42.805,6.029,13.2954,4.59961,2469.634,2019-5-23T11:46:21Z
2019-05-23T09:49:10Z,42.805,6.029,13.2953,4.59958,2469.643,2019-5-23T11:49:24Z
2019-05-23T09:52:13Z,42.805,6.029,13.2952,4.59956,2469.643,2019-5-23T11:52:27Z
2019-05-23T09:55:16Z,42.805,6.029,13.2953,4.59956,2469.61,2019-5-23T11:55:30Z
2019-05-23T09:58:19Z,42.805,6.029,13.2948,4.59954,2469.62,2019-5-23T11:58:33Z
2019-05-23T10:01:21Z,42.805,6.029,13.2951,4.59958,2469.62,2019-5-23T12:01:36Z
2019-05-23T10:04:24Z,42.805,6.029,13.2951,4.59954,2469.597,2019-5-23T12:04:39Z
2019-05-23T10:07:27Z,42.805,6.029,13.2953,4.59957,2469.634,2019-5-23T12:07:42Z
2019-05-23T10:10:30Z,42.805,6.029,13.2952,4.59960,2469.61,2019-5-23T12:10:45Z
2019-05-23T10:13:33Z,42.805,6.029,13.2952,4.59957,2469.573,2019-5-23T12:13:48Z
2019-05-23T10:16:36Z,42.805,6.029,13.2953,4.59956,2469.634,2019-5-23T12:16:51Z
2019-05-23T10:19:39Z,42.805,6.029,13.2950,4.59957,2469.643,2019-5-23T12:19:54Z
2019-05-23T10:22:42Z,42.805,6.029,13.2950,4.59958,2469.634,2019-5-23T12:22:57Z
2019-05-23T10:25:45Z,42.805,6.029,13.2949,4.59956,2469.597,2019-5-23T12:26:00Z
2019-05-23T10:28:48Z,42.805,6.029,13.2952,4.59955,2469.634,2019-5-23T12:29:02Z
2019-05-23T10:31:51Z,42.805,6.029,13.2950,4.59954,2469.597,2019-5-23T12:32:05Z
2019-05-23T10:34:54Z,42.805,6.029,13.2949,4.59961,2469.597,2019-5-23T12:35:08Z
2019-05-23T10:37:57Z,42.805,6.029,13.2951,4.59954,2469.61,2019-5-23T12:38:11Z
2019-05-23T10:41:00Z,42.805,6.029,13.2951,4.59964,2469.62,2019-5-23T12:41:14Z
2019-05-23T10:44:03Z,42.805,6.029,13.2950,4.59955,2469.61,2019-5-23T12:44:17Z
2019-05-23T10:47:06Z,42.805,6.029,13.2953,4.59958,2469.55,2019-5-23T12:47:20Z
2019-05-23T10:50:09Z,42.805,6.029,13.2948,4.59954,2469.573,2019-5-23T12:50:23Z
2019-05-23T10:53:12Z,42.805,6.029,13.2952,4.59960,2469.597,2019-5-23T12:53:26Z
2019-05-23T10:56:15Z,42.805,6.029,13.2953,4.59956,2469.61,2019-5-23T12:56:29Z
2019-05-23T10:59:18Z,42.805,6.029,13.2951,4.59961,2469.61,2019-5-23T12:59:32Z
2019-05-23T11:02:21Z,42.805,6.029,13.2956,4.59954,2469.62,2019-5-23T13:02:35Z
2019-05-23T11:05:24Z,42.805,6.029,13.2953,4.59954,2469.62,2019-5-23T13:05:38Z
2019-05-23T11:08:26Z,42.805,6.029,13.2952,4.59954,2469.61,2019-5-23T13:08:41Z
2019-05-23T11:11:29Z,42.805,6.029,13.2952,4.59954,2469.573,2019-5-23T13:11:44Z
2019-05-23T11:14:32Z,42.805,6.029,13.2948,4.59953,2469.55,2019-5-23T13:14:47Z
2019-05-23T11:17:35Z,42.805,6.029,13.2952,4.59954,2469.54,2019-5-23T13:17:50Z
2019-05-23T11:20:38Z,42.805,6.029,13.2952,4.59954,2469.573,2019-5-23T13:20:53Z
2019-05-23T11:23:41Z,42.805,6.029,13.2953,4.59957,2469.554,2019-5-23T13:23:56Z
2019-05-23T11:26:44Z,42.805,6.029,13.2953,4.59955,2469.573,2019-5-23T13:26:59Z
2019-05-23T11:29:47Z,42.805,6.029,13.2952,4.59957,2469.587,2019-5-23T13:30:02Z
2019-05-23T11:32:50Z,42.805,6.029,13.2951,4.59954,2469.573,2019-5-23T13:33:04Z
2019-05-23T11:35:53Z,42.805,6.029,13.2948,4.59958,2469.563,2019-5-23T13:36:07Z
2019-05-23T11:38:56Z,42.805,6.029,13.2955,4.59961,2469.55,2019-5-23T13:39:10Z
2019-05-23T11:41:59Z,42.805,6.029,13.2952,4.59954,2469.587,2019-5-23T13:42:13Z
2019-05-23T11:45:02Z,42.805,6.029,13.2952,4.59956,2469.55,2019-5-23T13:45:16Z
2019-05-23T11:48:05Z,42.805,6.029,13.2951,4.59957,2469.55,2019-5-23T13:48:19Z
2019-05-23T11:51:08Z,42.805,6.029,13.2952,4.59954,2469.563,2019-5-23T13:51:22Z
2019-05-23T11:54:11Z,42.805,6.029,13.2952,4.59954,2469.573,2019-5-23T13:54:25Z
2019-05-23T11:57:14Z,42.805,6.029,13.2952,4.59958,2469.573,2019-5-23T13:57:28Z
2019-05-23T12:00:17Z,42.805,6.029,13.2956,4.59954,2469.563,2019-5-23T14:00:31Z
2019-05-23T12:03:20Z,42.805,6.029,13.2954,4.59954,2469.587,2019-5-23T14:03:34Z
2019-05-23T12:06:23Z,42.805,6.029,13.2953,4.59954,2469.55,2019-5-23T14:06:37Z
2019-05-23T12:09:26Z,42.805,6.029,13.2952,4.59956,2469.563,2019-5-23T14:09:40Z
2019-05-23T12:12:28Z,42.805,6.029,13.2951,4.59956,2469.563,2019-5-23T14:12:43Z
2019-05-23T12:15:31Z,42.805,6.029,13.2951,4.59956,2469.573,2019-5-23T14:15:46Z
2019-05-23T12:18:34Z,42.805,6.029,13.2949,4.59955,2469.55,2019-5-23T14:18:49Z
2019-05-23T12:21:37Z,42.805,6.029,13.2952,4.59954,2469.563,2019-5-23T14:21:52Z
2019-05-23T12:24:40Z,42.805,6.029,13.2953,4.59954,2469.563,2019-5-23T14:24:55Z
2019-05-23T12:27:43Z,42.805,6.029,13.2952,4.59954,2469.526,2019-5-23T14:27:58Z
2019-05-23T12:30:46Z,42.805,6.029,13.2949,4.59951,2469.563,2019-5-23T14:31:01Z
2019-05-23T12:33:49Z,42.805,6.029,13.2951,4.59951,2469.503,2019-5-23T14:34:04Z
2019-05-23T12:36:52Z,42.805,6.029,13.2952,4.59956,2469.55,2019-5-23T14:37:06Z
2019-05-23T12:39:55Z,42.805,6.029,13.2951,4.59954,2469.54,2019-5-23T14:40:09Z
2019-05-23T12:42:58Z,42.805,6.029,13.2952,4.59958,2469.54,2019-5-23T14:43:12Z
2019-05-23T12:46:01Z,42.805,6.029,13.2952,4.59956,2469.54,2019-5-23T14:46:15Z
2019-05-23T12:49:04Z,42.805,6.029,13.2955,4.59956,2469.526,2019-5-23T14:49:18Z
2019-05-23T12:52:07Z,42.805,6.029,13.2949,4.59960,2469.503,2019-5-23T14:52:21Z
2019-05-23T12:55:10Z,42.805,6.029,13.2952,4.59956,2469.526,2019-5-23T14:55:24Z
2019-05-23T12:58:13Z,42.805,6.029,13.2952,4.59953,2469.503,2019-5-23T14:58:27Z
2019-05-23T13:01:16Z,42.805,6.029,13.2952,4.59952,2469.526,2019-5-23T15:01:30Z
2019-05-23T13:04:19Z,42.805,6.029,13.2953,4.59952,2469.526,2019-5-23T15:04:33Z
2019-05-23T13:07:22Z,42.805,6.029,13.2953,4.59953,2469.54,2019-5-23T15:07:36Z
2019-05-23T13:10:25Z,42.805,6.029,13.2952,4.59953,2469.526,2019-5-23T15:10:39Z
2019-05-23T13:13:28Z,42.805,6.029,13.2953,4.59956,2469.54,2019-5-23T15:13:42Z
2019-05-23T13:16:30Z,42.805,6.029,13.2957,4.59952,2469.54,2019-5-23T15:16:45Z
2019-05-23T13:19:33Z,42.805,6.029,13.2953,4.59951,2469.54,2019-5-23T15:19:48Z
2019-05-23T13:22:36Z,42.805,6.029,13.2953,4.59951,2469.517,2019-5-23T15:22:51Z
2019-05-23T13:25:39Z,42.805,6.029,13.2952,4.59952,2469.517,2019-5-23T15:25:54Z
2019-05-23T13:28:42Z,42.805,6.029,13.2954,4.59954,2469.54,2019-5-23T15:28:57Z
2019-05-23T13:31:45Z,42.805,6.029,13.2953,4.59952,2469.503,2019-5-23T15:32:00Z
2019-05-23T13:34:48Z,42.805,6.029,13.2953,4.59951,2469.517,2019-5-23T15:35:03Z
2019-05-23T13:37:51Z,42.805,6.029,13.2952,4.59951,2469.526,2019-5-23T15:38:06Z
2019-05-23T13:40:54Z,42.805,6.029,13.2952,4.59953,2469.517,2019-5-23T15:41:09Z
2019-05-23T13:43:57Z,42.805,6.029,13.2956,4.59951,2469.526,2019-5-23T15:44:11Z
2019-05-23T13:47:00Z,42.805,6.029,13.2950,4.59950,2469.526,2019-5-23T15:47:14Z
2019-05-23T13:50:03Z,42.805,6.029,13.2952,4.59952,2469.517,2019-5-23T15:50:17Z
2019-05-23T13:53:06Z,42.805,6.029,13.2953,4.59951,2469.517,2019-5-23T15:53:20Z
2019-05-23T13:56:09Z,42.805,6.029,13.2953,4.59951,2469.503,2019-5-23T15:56:23Z
2019-05-23T13:59:12Z,42.805,6.029,13.2948,4.59952,2469.48,2019-5-23T15:59:26Z
2019-05-23T14:02:15Z,42.805,6.029,13.2950,4.59954,2469.517,2019-5-23T16:02:29Z
2019-05-23T14:05:18Z,42.805,6.029,13.2953,4.59954,2469.503,2019-5-23T16:05:32Z
2019-05-23T14:08:21Z,42.805,6.029,13.2954,4.59952,2469.503,2019-5-23T16:08:35Z
2019-05-23T14:11:24Z,42.805,6.029,13.2952,4.59953,2469.526,2019-5-23T16:11:38Z
2019-05-23T14:14:27Z,42.805,6.029,13.2950,4.59951,2469.513,2019-5-23T16:14:41Z
2019-05-23T14:17:30Z,42.805,6.029,13.2953,4.59950,2469.503,2019-5-23T16:17:44Z
2019-05-23T14:20:33Z,42.805,6.029,13.2952,4.59952,2469.526,2019-5-23T16:20:47Z
2019-05-23T14:23:35Z,42.805,6.029,13.2953,4.59952,2469.517,2019-5-23T16:23:50Z
2019-05-23T14:26:38Z,42.805,6.029,13.2949,4.59951,2469.517,2019-5-23T16:26:53Z
2019-05-23T14:29:41Z,42.805,6.029,13.2952,4.59950,2469.526,2019-5-23T16:29:56Z
2019-05-23T14:32:44Z,42.805,6.029,13.2953,4.59951,2469.48,2019-5-23T16:32:59Z
2019-05-23T14:35:47Z,42.805,6.029,13.2951,4.59952,2469.48,2019-5-23T16:36:02Z
2019-05-23T14:38:50Z,42.805,6.029,13.2950,4.59953,2469.503,2019-5-23T16:39:05Z
2019-05-23T14:41:53Z,42.805,6.029,13.2953,4.59951,2469.48,2019-5-23T16:42:08Z
2019-05-23T14:44:56Z,42.805,6.029,13.2950,4.59957,2469.494,2019-5-23T16:45:11Z
2019-05-23T14:47:59Z,42.805,6.029,13.2952,4.59958,2469.456,2019-5-23T16:48:13Z
2019-05-23T14:51:02Z,42.805,6.029,13.2954,4.59958,2469.494,2019-5-23T16:51:16Z
2019-05-23T14:54:05Z,42.805,6.029,13.2953,4.59961,2469.494,2019-5-23T16:54:19Z
2019-05-23T14:57:08Z,42.805,6.029,13.2954,4.59956,2469.517,2019-5-23T16:57:22Z
2019-05-23T15:00:11Z,42.805,6.029,13.2953,4.59958,2469.517,2019-5-23T17:00:25Z
2019-05-23T15:03:14Z,42.805,6.029,13.2954,4.59955,2469.494,2019-5-23T17:03:28Z
2019-05-23T15:06:17Z,42.805,6.029,13.2953,4.59958,2469.517,2019-5-23T17:06:31Z
2019-05-23T15:09:20Z,42.805,6.029,13.2953,4.59961,2469.494,2019-5-23T17:09:34Z